User: anonymous   Login
Location: Unspecified
(0.0000°N, 0.0000°E)
Time: 22:21:14
(UTC+00:00)
Language:

Akebono - Orbit

View from above orbital plane
View from above orbital plane
View from above satellite
View from above satellite

Ground track
Ground track

The orbit data is extracted from the following two-line orbital elements,

1 19822U 89016A   17326.53229816  .00021135  81810-6  40812-3 0  9995
2 19822  75.0362 108.1437 1878682 307.8174  36.6838 11.75753747927808
Epoch (UTC): 22 November 2017 12:46:30
Eccentricity: 0.1878682
inclination: 75.0362°
perigee height: 256 km
apogee height: 3326 km
right ascension of ascending node: 108.1437°
argument of perigee: 307.8174°
revolutions per day: 11.75753747
mean anomaly at epoch: 36.6838°
orbit number at epoch: 92780

The dashed part of the orbit path shows where the satellite is in the earth's shadow,  

DLR